Terminal Aerodrome Forecast
Issued by NWS Portland, OR

Home | Current Version | Previous Version | Text Only | Print | Product List | Glossary On
Versions: 1 2 3 4 5 6 7 8 9 10 11 12 13 14 15 16 17 18 19 20 21 22 23 24 25 26 27 28 29 30 31 32 33 34 35 36 37 38 39 40 41 42 43 44 45 46 47 48 49 50
000
FTUS46 KPQR 070737 AAA
TAFPDX
TAF AMD
KPDX 070737Z 0708/0806 VRB03KT P6SM BKN028 OVC040
     FM071200 09003KT P6SM OVC025
     FM071800 11005KT P6SM SCT030 BKN100
     FM080000 10008KT P6SM SCT120 BKN250=

USA.gov is the U.S. government's official web portal to all federal, state and local government web resources and services.